Jonesboro, AR

3:12 AM CDT on July 26, 2017 (GMT -0500)
Jonesboro Municipal

Weather History for KJBR - January, 2012

Change the Weather History Date:

Monday, January 30, 2012

  Actual Average Record
Temperature  
Mean Temperature 49 °F 38 °F  
Max Temperature 62 °F 47 °F 75 °F (1917)
Min Temperature 36 °F 29 °F 0 °F (1966)
Degree Days  
Heating Degree Days 16 27  
Month to date heating degree days 640 831  
Since 1 July heating degree days 1879 2273  
Cooling Degree Days 0 0  
Month to date cooling degree days 0 0  
Year to date cooling degree days 0 0  
Moisture  
Dew Point 32 °F    
Average Humidity 55    
Maximum Humidity 76    
Minimum Humidity 34    
Precipitation  
Precipitation 0.00 in 0.13 in 4.73 in (1969)
Month to date precipitation 2.74 3.28  
Year to date precipitation 2.74 3.28  
Snow  
Snow 0.00 in - - ()
Month to date snowfall T  
Snow Depth 0.00 in    
Sea Level Pressure  
Sea Level Pressure 30.22 in    
Wind  
Wind Speed 13 mph (SSW)    
Max Wind Speed 24 mph    
Max Gust Speed 32 mph    
Visibility 10 miles    
Events      
T = Trace of Precipitation, MM = Missing Value Source: NWS Daily Summary

Daily Weather History Graph

Daily Weather History Graph

Search for Another Location

Airport or City:

Trip Planner

Search our weather history database for the weather conditions in past years. The results will help you decide how hot, cold, wet, or windy it might be!

Date:

Astronomy

Jan. 30, 2012 Rise Set
Actual Time 7:04 AM CST 5:27 PM CST
Civil Twilight 6:37 AM CST 5:54 PM CST
Nautical Twilight 6:07 AM CST 6:25 PM CST
Astronomical Twilight 5:36 AM CST 6:55 PM CST
Moon 10:44 AM CST (1/30) No Moon Set
Length of Visible Light 11h 16m
Length of Day
10h 22m
Waxing Crescent, 46% of the Moon is Illuminated
Jan 30
Waxing Crescent
Jan 30
First Quarter
Feb 7
Full
Feb 14
Last Quarter
Feb 21
New

Hourly Weather History & Observations

Time (CST) Temp. Windchill Dew Point Humidity Pressure Visibility Wind Dir Wind Speed Gust Speed Precip Events Conditions
12:53 AM 42.1 °F 38.4 °F 30.9 °F 65% 30.27 in 10.0 mi SW 5.8 mph - N/A   Clear
1:53 AM 39.0 °F 35.7 °F 30.9 °F 73% 30.27 in 10.0 mi SW 4.6 mph - N/A   Clear
2:53 AM 37.9 °F 33.5 °F 30.9 °F 76% 30.27 in 10.0 mi SSW 5.8 mph - N/A   Clear
3:53 AM 39.0 °F 33.4 °F 30.9 °F 73% 30.26 in 10.0 mi SSW 8.1 mph - N/A   Clear
4:53 AM 41.0 °F 34.3 °F 30.0 °F 65% 30.26 in 10.0 mi SSW 11.5 mph - N/A   Clear
5:53 AM 39.9 °F 33.9 °F 28.9 °F 65% 30.27 in 10.0 mi SSW 9.2 mph - N/A   Clear
6:53 AM 39.9 °F 34.5 °F 28.9 °F 65% 30.28 in 10.0 mi SSW 8.1 mph - N/A   Clear
7:53 AM 39.9 °F 35.1 °F 28.9 °F 65% 30.29 in 10.0 mi SSW 6.9 mph - N/A   Clear
8:53 AM 46.0 °F 41.9 °F 30.0 °F 54% 30.29 in 10.0 mi SSW 8.1 mph - N/A   Clear
9:53 AM 48.9 °F - 28.0 °F 44% 30.29 in 10.0 mi SSW 13.8 mph - N/A   Overcast
10:53 AM 53.6 °F - 28.4 °F 38% 30.28 in 10.0 mi SW 12.7 mph - N/A   Clear
11:53 AM 55.9 °F - 33.1 °F 42% 30.26 in 10.0 mi SSW 17.3 mph - N/A   Clear
12:53 PM 59.0 °F - 34.0 °F 39% 30.22 in 10.0 mi SSW 19.6 mph 28.8 mph N/A   Clear
1:53 PM 61.0 °F - 36.0 °F 39% 30.18 in 10.0 mi SSW 23.0 mph 27.6 mph N/A   Clear
2:53 PM 62.1 °F - 36.0 °F 38% 30.17 in 10.0 mi SSW 20.7 mph 28.8 mph N/A   Clear
3:53 PM 62.1 °F - 34.0 °F 35% 30.15 in 10.0 mi SSW 19.6 mph 28.8 mph N/A   Clear
4:53 PM 61.0 °F - 32.0 °F 34% 30.15 in 10.0 mi SSW 17.3 mph 26.5 mph N/A   Clear
5:53 PM 57.0 °F - 33.1 °F 40% 30.16 in 10.0 mi SSW 13.8 mph - N/A   Clear
6:53 PM 52.0 °F - 37.0 °F 57% 30.16 in 10.0 mi South 9.2 mph - N/A   Clear
7:53 PM 51.1 °F - 37.0 °F 59% 30.17 in 10.0 mi South 11.5 mph - N/A   Clear
8:53 PM 48.9 °F - 36.0 °F 61% 30.17 in 10.0 mi South 6.9 mph - N/A   Clear
9:53 PM 55.0 °F - 30.9 °F 40% 30.16 in 10.0 mi SW 18.4 mph 27.6 mph N/A   Clear
10:53 PM 53.1 °F - 32.0 °F 45% 30.16 in 10.0 mi SSW 12.7 mph - N/A   Clear
11:53 PM 54.0 °F - 30.9 °F 41% 30.15 in 10.0 mi SSW 17.3 mph 26.5 mph N/A   Clear